"# Mixing ratio of CO2 (xCO2) in dry air measured onboard R/V Hakuho-maru of the Ocean Research Institue, the University of Tokyo.",,,,,,,,,,,,,,,,,,,,,,
# Version 1.2; 02 Mar. 2008.,,,,,,,,,,,,,,,,,,,,,,
# Measured by Meteorological Research Institute. ,,,,,,,,,,,,,,,,,,,,,,
# PI : Unknown; Reanalyzed by H. Y. Inoue,,,,,,,,,,,,,,,,,,,,,,
# Concetrarion scale = MRI87,,,,,,,,,,,,,,,,,,,,,,
# Time = UTC,,,,,,,,,,,,,,,,,,,,,,
"# Reference: Inoue et al., Tellus 51B, 830-848 (1999).",,,,,,,,,,,,,,,,,,,,,,
Ship,Cruise,Serial No.,Date,,,Time,,Latitude,Longitude,xCO2_Air,F,xCO2_Sea,F,Wind_Dir,Wind_Spd,Atm_Prs,Atm_Tmp.,SST,F,SSS,F,pH2O
,,,Year,Month,Day,Hour,Min.,Deg.,Deg.,ppm,,ppm,,Deg.,m/s,hPa,deg.C,deg.C,,,,hPa
Hakuho-maru,KH70-1,1,1970,2,6,10,,30,157.6,326.7,8,280,5,-99,-9.9,1014.7,-99.9,20.8,2,-9.999,9,20.3
Hakuho-maru,KH70-1,2,1970,2,6,11,,30,157.67,326.7,8,282.6,5,-99,-9.9,1014.7,-99.9,20.6,2,-9.999,9,20.1
Hakuho-maru,KH70-1,3,1970,2,6,12,,30,157.74,326.7,8,284.6,5,-99,-9.9,1014.7,-99.9,20.4,2,-9.999,9,19.9
Hakuho-maru,KH70-1,4,1970,2,6,13,,30,157.81,326.7,8,284,5,-99,-9.9,1014.6,-99.9,20.1,2,-9.999,9,19.6
Hakuho-maru,KH70-1,5,1970,2,6,14,,30,157.88,326.7,8,282.4,5,-99,-9.9,1014.6,-99.9,19.9,2,-9.999,9,19.4
Hakuho-maru,KH70-1,6,1970,2,6,15,,30,157.95,326.7,8,282.1,5,-99,-9.9,1014.7,-99.9,19.7,2,-9.999,9,19.2
Hakuho-maru,KH70-1,7,1970,2,6,16,,30,158,326.7,8,282.5,5,-99,-9.9,1014.6,-99.9,19.5,2,-9.999,9,19
Hakuho-maru,KH70-1,8,1970,2,6,17,,30,158,326.7,8,282.9,5,-99,-9.9,1014.9,-99.9,19.3,2,-9.999,9,18.8
Hakuho-maru,KH70-1,9,1970,2,6,18,,30,158,326.7,8,283,5,-99,-9.9,1013.7,-99.9,19.2,2,-9.999,9,18.7
Hakuho-maru,KH70-1,10,1970,2,6,19,,30,157.99,326.7,8,282.5,5,-99,-9.9,1015.4,-99.9,19.4,2,-9.999,9,18.9
Hakuho-maru,KH70-1,11,1970,2,6,20,,30,157.99,326.7,8,282.7,5,-99,-9.9,1015.6,-99.9,19.6,2,-9.999,9,19.1
Hakuho-maru,KH70-1,14,1970,2,6,23,,30.06,157.99,326.7,8,275.9,5,-99,-9.9,1016.4,-99.9,20.2,2,-9.999,9,19.7
Hakuho-maru,KH70-1,15,1970,2,7,0,,30.09,158,326.7,8,276.7,5,-99,-9.9,1018,-99.9,20.3,2,-9.999,9,19.8
Hakuho-maru,KH70-1,17,1970,2,7,2,,30.16,158,326.7,8,275.7,5,-99,-9.9,1017.1,-99.9,20.2,2,-9.999,9,19.7
Hakuho-maru,KH70-1,18,1970,2,7,3,,30.2,158,326.7,8,276.4,5,-99,-9.9,1017.3,-99.9,20.2,2,-9.999,9,19.7
Hakuho-maru,KH70-1,19,1970,2,7,4,,30.22,158.02,326.7,8,276.9,5,-99,-9.9,1018,-99.9,20.1,2,-9.999,9,19.6
Hakuho-maru,KH70-1,20,1970,2,7,5,,30.23,158.03,326.7,8,276.8,5,-99,-9.9,1018.8,-99.9,20.1,2,-9.999,9,19.6
Hakuho-maru,KH70-1,21,1970,2,7,6,,30.25,158.05,326.7,8,277.5,5,-99,-9.9,1019.2,-99.9,20.1,2,-9.999,9,19.6
Hakuho-maru,KH70-1,22,1970,2,7,7,,30.27,158.07,326.7,8,277.2,5,-99,-9.9,1020.4,-99.9,20.1,2,-9.999,9,19.6
Hakuho-maru,KH70-1,23,1970,2,7,8,,30.28,158.08,326.7,8,278,5,-99,-9.9,1021.2,-99.9,20.1,2,-9.999,9,19.6
Hakuho-maru,KH70-1,24,1970,2,7,9,,30.3,158.1,326.7,8,279.9,5,-99,-9.9,1022,-99.9,20.1,2,-9.999,9,19.6
Hakuho-maru,KH70-1,25,1970,2,7,10,,30.31,158.1,326.7,8,276.2,5,-99,-9.9,1022.3,-99.9,20.2,2,-9.999,9,19.7
Hakuho-maru,KH70-1,26,1970,2,7,11,,30.33,158.1,326.7,8,276.3,5,-99,-9.9,1022.7,-99.9,20.2,2,-9.999,9,19.7
Hakuho-maru,KH70-1,27,1970,2,7,12,,30.35,158.1,326.7,8,274.9,5,-99,-9.9,1023.8,-99.9,20.1,2,-9.999,9,19.6
Hakuho-maru,KH70-1,28,1970,2,7,13,,30.36,158.1,326.7,8,275.9,5,-99,-9.9,1023.4,-99.9,20.1,2,-9.999,9,19.6
Hakuho-maru,KH70-1,29,1970,2,7,14,,30.38,158.1,326.7,8,276.7,5,-99,-9.9,1023.8,-99.9,20,2,-9.999,9,19.5
Hakuho-maru,KH70-1,30,1970,2,7,15,,30.43,158.07,326.7,8,276,5,-99,-9.9,1024,-99.9,20,2,-9.999,9,19.5
Hakuho-maru,KH70-1,31,1970,2,7,16,,30.52,158,326.7,8,275.6,5,-99,-9.9,1024.2,-99.9,19.9,2,-9.999,9,19.4
Hakuho-maru,KH70-1,32,1970,2,7,17,,30.62,157.93,326.7,8,276.9,5,-99,-9.9,1024.4,-99.9,19.8,2,-9.999,9,19.3
Hakuho-maru,KH70-1,33,1970,2,7,18,,30.71,157.85,326.7,8,277.9,5,-99,-9.9,1024.2,-99.9,19.7,2,-9.999,9,19.2
Hakuho-maru,KH70-1,34,1970,2,7,19,,30.81,157.78,326.7,8,277.8,5,-99,-9.9,1024.7,-99.9,19.6,2,-9.999,9,19.1
Hakuho-maru,KH70-1,35,1970,2,7,20,,30.9,157.71,326.7,8,277.9,5,-99,-9.9,1024.9,-99.9,19.5,2,-9.999,9,19
Hakuho-maru,KH70-1,36,1970,2,7,21,,31.04,157.72,326.7,8,278.7,5,-99,-9.9,1025.2,-99.9,19.4,2,-9.999,9,18.9
Hakuho-maru,KH70-1,37,1970,2,7,22,,31.2,157.76,326.7,8,279.6,5,-99,-9.9,1025.2,-99.9,19.3,2,-9.999,9,18.8
Hakuho-maru,KH70-1,38,1970,2,7,23,,31.36,157.81,326.7,8,279.2,5,-99,-9.9,1025.4,-99.9,19.1,2,-9.999,9,18.6
Hakuho-maru,KH70-1,39,1970,2,8,0,,31.52,157.85,326.7,8,282,5,-99,-9.9,1026.7,-99.9,19,2,-9.999,9,18.4
Hakuho-maru,KH70-1,40,1970,2,8,1,,31.67,157.9,326.7,8,282.2,5,-99,-9.9,1025.7,-99.9,18.8,2,-9.999,9,18.2
Hakuho-maru,KH70-1,41,1970,2,8,2,,31.83,157.94,326.7,8,280.3,5,-99,-9.9,1025.8,-99.9,18.6,2,-9.999,9,18
Hakuho-maru,KH70-1,42,1970,2,8,3,,31.98,157.95,326.7,8,280.5,5,-99,-9.9,1025.5,-99.9,18.4,2,-9.999,9,17.9
Hakuho-maru,KH70-1,43,1970,2,8,4,,32.12,157.96,326.7,8,279.6,5,-99,-9.9,1026.1,-99.9,18.2,2,-9.999,9,17.7
Hakuho-maru,KH70-1,44,1970,2,8,5,,32.26,157.97,326.7,8,280,5,-99,-9.9,1026.2,-99.9,18.2,2,-9.999,9,17.7
Hakuho-maru,KH70-1,45,1970,2,8,6,,32.41,157.98,326.7,8,279.5,5,-99,-9.9,1025.7,-99.9,18.2,2,-9.999,9,17.7
Hakuho-maru,KH70-1,46,1970,2,8,7,,32.55,157.99,326.7,8,278.8,5,-99,-9.9,1026.4,-99.9,18.2,2,-9.999,9,17.6
Hakuho-maru,KH70-1,47,1970,2,8,8,,32.67,158,326.7,8,279.1,5,-99,-9.9,1026.5,-99.9,18.2,2,-9.999,9,17.6
Hakuho-maru,KH70-1,48,1970,2,8,9,,32.73,158,326.7,8,279.1,5,-99,-9.9,1027,-99.9,18.2,2,-9.999,9,17.6
Hakuho-maru,KH70-1,49,1970,2,8,10,,32.79,158,326.7,8,279.9,5,-99,-9.9,1026.4,-99.9,18.1,2,-9.999,9,17.6
Hakuho-maru,KH70-1,50,1970,2,8,11,,32.85,158,326.7,8,279.5,5,-99,-9.9,1026.3,-99.9,18.1,2,-9.999,9,17.6
Hakuho-maru,KH70-1,51,1970,2,8,12,,32.91,158,326.7,8,279.5,5,-99,-9.9,1026.7,-99.9,18.1,2,-9.999,9,17.5
Hakuho-maru,KH70-1,52,1970,2,8,13,,32.97,158,326.7,8,278.7,5,-99,-9.9,1026.2,-99.9,18.1,2,-9.999,9,17.5
Hakuho-maru,KH70-1,53,1970,2,8,14,,33.05,158.01,326.7,8,278.8,5,-99,-9.9,1025.8,-99.9,18,2,-9.999,9,17.5
Hakuho-maru,KH70-1,54,1970,2,8,15,,33.13,158.03,326.7,8,278.4,5,-99,-9.9,1025.4,-99.9,18,2,-9.999,9,17.5
Hakuho-maru,KH70-1,55,1970,2,8,16,,33.22,158.05,326.7,8,278.3,5,-99,-9.9,1024.3,-99.9,18,2,-9.999,9,17.5
Hakuho-maru,KH70-1,56,1970,2,8,17,,33.3,158.07,326.7,8,280.7,5,-99,-9.9,1023.5,-99.9,18,2,-9.999,9,17.5
Hakuho-maru,KH70-1,57,1970,2,8,18,,33.39,158.09,326.7,8,281.1,5,-99,-9.9,1023.2,-99.9,18,2,-9.999,9,17.5
Hakuho-maru,KH70-1,58,1970,2,8,19,,33.47,158.11,326.7,8,283.1,5,-99,-9.9,1022,-99.9,18,2,-9.999,9,17.5
Hakuho-maru,KH70-1,59,1970,2,8,20,,33.55,158.1,326.7,8,283,5,-99,-9.9,1021.3,-99.9,18,2,-9.999,9,17.5
Hakuho-maru,KH70-1,60,1970,2,8,21,,33.63,158.08,326.7,8,290,5,-99,-9.9,1019.7,-99.9,18,2,-9.999,9,17.4
Hakuho-maru,KH70-1,61,1970,2,8,22,,33.71,158.06,326.7,8,291.8,5,-99,-9.9,1019.9,-99.9,17.8,2,-9.999,9,17.2
Hakuho-maru,KH70-1,62,1970,2,8,23,,33.79,158.04,326.7,8,292.7,5,-99,-9.9,1019.3,-99.9,17.6,2,-9.999,9,17
Hakuho-maru,KH70-1,63,1970,2,9,0,,33.87,158.02,326.7,8,299.6,5,-99,-9.9,1019.6,-99.9,17.4,2,-9.999,9,16.8
Hakuho-maru,KH70-1,64,1970,2,9,1,,33.95,158,326.7,8,298,5,-99,-9.9,1017.8,-99.9,17.2,2,-9.999,9,16.6
Hakuho-maru,KH70-1,65,1970,2,9,2,,34.01,158,326.7,8,276.2,5,-99,-9.9,1016.5,-99.9,17,2,-9.999,9,16.4
Hakuho-maru,KH70-1,66,1970,2,9,3,,34.06,157.99,326.7,8,277.2,5,-99,-9.9,1012.4,-99.9,16.9,2,-9.999,9,16.3
Hakuho-maru,KH70-1,67,1970,2,9,4,,34.12,157.99,326.7,8,276.7,5,-99,-9.9,1014,-99.9,16.9,2,-9.999,9,16.3
Hakuho-maru,KH70-1,68,1970,2,9,5,,34.17,157.99,326.7,8,276.4,5,-99,-9.9,1012.7,-99.9,16.9,2,-9.999,9,16.3
Hakuho-maru,KH70-1,69,1970,2,9,6,,34.23,157.99,326.7,8,276.1,5,-99,-9.9,1011,-99.9,16.9,2,-9.999,9,16.3
Hakuho-maru,KH70-1,70,1970,2,9,7,,34.26,157.98,326.7,8,277.6,5,-99,-9.9,1010.4,-99.9,16.9,2,-9.999,9,16.3
Hakuho-maru,KH70-1,71,1970,2,9,8,,34.25,157.96,326.7,8,277.2,5,-99,-9.9,1009.9,-99.9,17,2,-9.999,9,16.4
Hakuho-maru,KH70-1,72,1970,2,9,9,,34.24,157.95,326.7,8,278.2,5,-99,-9.9,1009.1,-99.9,16.9,2,-9.999,9,16.3
Hakuho-maru,KH70-1,73,1970,2,9,10,,34.23,157.93,326.7,8,277.8,5,-99,-9.9,1008.9,-99.9,16.8,2,-9.999,9,16.1
Hakuho-maru,KH70-1,74,1970,2,9,11,,34.21,157.92,326.7,8,278.6,5,-99,-9.9,1008.3,-99.9,16.6,2,-9.999,9,16
Hakuho-maru,KH70-1,75,1970,2,9,12,,34.2,157.9,326.7,8,279.1,5,-99,-9.9,1007.8,-99.9,16.5,2,-9.999,9,15.9
Hakuho-maru,KH70-1,76,1970,2,9,13,,34.19,157.86,326.7,8,276.4,5,-99,-9.9,1007,-99.9,16.4,2,-9.999,9,15.7
Hakuho-maru,KH70-1,77,1970,2,9,14,,34.17,157.81,326.7,8,278,5,-99,-9.9,1006,-99.9,16.2,2,-9.999,9,15.6
Hakuho-maru,KH70-1,78,1970,2,9,15,,34.15,157.76,326.7,8,278.9,5,-99,-9.9,1006,-99.9,16.2,2,-9.999,9,15.6
Hakuho-maru,KH70-1,79,1970,2,9,16,,34.13,157.71,326.7,8,279.1,5,-99,-9.9,1004.1,-99.9,16.2,2,-9.999,9,15.6
Hakuho-maru,KH70-1,80,1970,2,9,17,,34.12,157.65,326.7,8,279.7,5,-99,-9.9,1003.2,-99.9,16.2,2,-9.999,9,15.6
Hakuho-maru,KH70-1,81,1970,2,9,18,,34.1,157.6,326.7,8,279.7,5,-99,-9.9,1002.2,-99.9,16.2,2,-9.999,9,15.6
Hakuho-maru,KH70-1,82,1970,2,9,19,,34.07,157.57,326.7,8,280.8,5,-99,-9.9,1001.8,-99.9,16.2,2,-9.999,9,15.6
Hakuho-maru,KH70-1,83,1970,2,9,20,,34.03,157.53,326.7,8,282.9,5,-99,-9.9,1001.5,-99.9,16.3,2,-9.999,9,15.6
Hakuho-maru,KH70-1,84,1970,2,9,21,,34,157.5,326.7,8,279.8,5,-99,-9.9,1000,-99.9,16.3,2,-9.999,9,15.7
Hakuho-maru,KH70-1,85,1970,2,9,22,,33.97,157.47,326.7,8,282.5,5,-99,-9.9,1000.8,-99.9,16.4,2,-9.999,9,15.7
Hakuho-maru,KH70-1,86,1970,2,9,23,,33.93,157.43,326.7,8,285.4,5,-99,-9.9,1000.5,-99.9,16.4,2,-9.999,9,15.8
Hakuho-maru,KH70-1,87,1970,2,10,0,,33.9,157.38,326.7,8,288.4,5,-99,-9.9,1000.2,-99.9,16.5,2,-9.999,9,15.9
Hakuho-maru,KH70-1,88,1970,2,10,1,,33.87,157.26,326.7,8,284.3,5,-99,-9.9,997.4,-99.9,16.5,2,-9.999,9,15.9
Hakuho-maru,KH70-1,89,1970,2,10,2,,33.83,157.14,326.7,8,287.4,5,-99,-9.9,995.2,-99.9,16.5,2,-9.999,9,15.9
Hakuho-maru,KH70-1,90,1970,2,10,3,,33.8,157.03,326.7,8,282.7,5,-99,-9.9,990,-99.9,16.4,2,-9.999,9,15.8
Hakuho-maru,KH70-1,91,1970,2,10,4,,33.77,156.91,326.7,8,283.8,5,-99,-9.9,990.7,-99.9,16.4,2,-9.999,9,15.7
Hakuho-maru,KH70-1,92,1970,2,10,5,,33.73,156.79,326.8,8,285.5,5,-99,-9.9,988.4,-99.9,16.3,2,-9.999,9,15.7
Hakuho-maru,KH70-1,93,1970,2,10,6,,33.74,156.76,326.8,8,288.6,5,-99,-9.9,987,-99.9,16.2,2,-9.999,9,15.6
Hakuho-maru,KH70-1,94,1970,2,10,7,,33.79,156.8,326.8,8,-9.9,4,-99,-9.9,991.1,-99.9,16.1,2,-9.999,9,15.5
Hakuho-maru,KH70-1,95,1970,2,10,8,,33.83,156.85,326.8,8,285.2,5,-99,-9.9,993.5,-99.9,16.2,2,-9.999,9,15.6
Hakuho-maru,KH70-1,96,1970,2,10,9,,33.87,156.89,326.8,8,286.1,5,-99,-9.9,1001,-99.9,16.3,2,-9.999,9,15.7
Hakuho-maru,KH70-1,97,1970,2,10,10,,33.92,156.94,326.8,8,284,5,-99,-9.9,998.4,-99.9,16.4,2,-9.999,9,15.8
Hakuho-maru,KH70-1,98,1970,2,10,11,,33.96,156.98,326.8,8,293.6,5,-99,-9.9,1000.8,-99.9,16.5,2,-9.999,9,15.8
Hakuho-maru,KH70-1,99,1970,2,10,12,,34.08,157.1,326.8,8,285,5,-99,-9.9,1001.3,-99.9,16.6,2,-9.999,9,15.9
Hakuho-maru,KH70-1,100,1970,2,10,13,,34.22,157.23,326.8,8,285.6,5,-99,-9.9,1000.6,-99.9,16.6,2,-9.999,9,16
Hakuho-maru,KH70-1,101,1970,2,10,14,,34.36,157.37,326.8,8,285.9,5,-99,-9.9,1000.2,-99.9,16.5,2,-9.999,9,15.9
Hakuho-maru,KH70-1,102,1970,2,10,15,,34.49,157.5,326.9,8,284,5,-99,-9.9,1001.2,-99.9,16.4,2,-9.999,9,15.8
Hakuho-maru,KH70-1,103,1970,2,10,16,,34.63,157.63,326.9,8,286.8,5,-99,-9.9,999.4,-99.9,16.4,2,-9.999,9,15.7
Hakuho-maru,KH70-1,104,1970,2,10,17,,34.76,157.76,326.9,8,289,5,-99,-9.9,999.1,-99.9,16.3,2,-9.999,9,15.6
Hakuho-maru,KH70-1,105,1970,2,10,18,,34.78,157.78,326.9,8,287.6,5,-99,-9.9,998,-99.9,16.2,2,-9.999,9,15.5
Hakuho-maru,KH70-1,106,1970,2,10,19,,34.81,157.81,326.9,8,287.4,5,-99,-9.9,1000.2,-99.9,16.1,2,-9.999,9,15.4
Hakuho-maru,KH70-1,107,1970,2,10,20,,34.83,157.83,326.9,8,287,5,-99,-9.9,1000.8,-99.9,16,2,-9.999,9,15.3
Hakuho-maru,KH70-1,108,1970,2,10,21,,34.86,157.86,326.9,8,286.9,5,-99,-9.9,1001.2,-99.9,15.9,2,-9.999,9,15.2
Hakuho-maru,KH70-1,109,1970,2,10,22,,34.88,157.88,326.9,8,287.5,5,-99,-9.9,1001.9,-99.9,15.7,2,-9.999,9,15.1
Hakuho-maru,KH70-1,110,1970,2,10,23,,34.9,157.87,326.9,8,287,5,-99,-9.9,1002.3,-99.9,15.6,2,-9.999,9,15
Hakuho-maru,KH70-1,111,1970,2,11,0,,34.9,157.8,326.9,8,285.5,5,-99,-9.9,1002.8,-99.9,15.5,2,-9.999,9,14.9
Hakuho-maru,KH70-1,112,1970,2,11,1,,34.9,157.73,327,8,286.9,5,-99,-9.9,1002.6,-99.9,15.5,2,-9.999,9,14.8
Hakuho-maru,KH70-1,113,1970,2,11,2,,34.9,157.66,327,8,287.2,5,-99,-9.9,1002.7,-99.9,15.5,2,-9.999,9,14.8
Hakuho-maru,KH70-1,114,1970,2,11,3,,34.9,157.59,327,8,287.5,5,-99,-9.9,1001.7,-99.9,15.5,2,-9.999,9,14.8
Hakuho-maru,KH70-1,115,1970,2,11,4,,34.9,157.52,327,8,286.8,5,-99,-9.9,1002.9,-99.9,15.5,2,-9.999,9,14.8
Hakuho-maru,KH70-1,116,1970,2,11,5,,34.92,157.47,327,8,288,5,-99,-9.9,1003.9,-99.9,15.5,2,-9.999,9,14.8
Hakuho-maru,KH70-1,117,1970,2,11,6,,34.94,157.42,327,8,291.8,5,-99,-9.9,1005.2,-99.9,15.5,2,-9.999,9,14.8
Hakuho-maru,KH70-1,118,1970,2,11,7,,34.96,157.37,327,8,295.9,5,-99,-9.9,1006.7,-99.9,15.5,2,-9.999,9,14.9
Hakuho-maru,KH70-1,119,1970,2,11,8,,34.99,157.33,327,8,293.4,5,-99,-9.9,1008.1,-99.9,15.5,2,-9.999,9,14.9
Hakuho-maru,KH70-1,120,1970,2,11,9,,35.01,157.28,327,8,291.7,5,-99,-9.9,1010.5,-99.9,15.5,2,-9.999,9,14.9
Hakuho-maru,KH70-1,121,1970,2,11,10,,35.03,157.23,327,8,293.5,5,-99,-9.9,1010.8,-99.9,15.5,2,-9.999,9,14.9
Hakuho-maru,KH70-1,122,1970,2,11,11,,35.07,157.19,327,8,293.2,5,-99,-9.9,1011.6,-99.9,15.6,2,-9.999,9,14.9
Hakuho-maru,KH70-1,123,1970,2,11,12,,35.11,157.14,327,8,290.7,5,-99,-9.9,1011.5,-99.9,15.6,2,-9.999,9,15
Hakuho-maru,KH70-1,124,1970,2,11,13,,35.14,157.09,327,8,292.1,5,-99,-9.9,1013,-99.9,15.8,2,-9.999,9,15.2
Hakuho-maru,KH70-1,125,1970,2,11,14,,35.18,157.04,327,8,294.5,5,-99,-9.9,1013.7,-99.9,16,2,-9.999,9,15.4
Hakuho-maru,KH70-1,126,1970,2,11,15,,35.22,157,327,8,293.4,5,-99,-9.9,1014.5,-99.9,16.2,2,-9.999,9,15.5
Hakuho-maru,KH70-1,127,1970,2,11,16,,35.25,156.98,327,8,293.9,5,-99,-9.9,1015,-99.9,16.4,2,-9.999,9,15.7
Hakuho-maru,KH70-1,128,1970,2,11,17,,35.29,157.05,327,8,294.9,5,-99,-9.9,1015.3,-99.9,16.5,2,-9.999,9,15.9
Hakuho-maru,KH70-1,129,1970,2,11,18,,35.33,157.12,327,8,295.8,5,-99,-9.9,1015.7,-99.9,16.5,2,-9.999,9,15.9
Hakuho-maru,KH70-1,130,1970,2,11,19,,35.37,157.19,327,8,294.8,5,-99,-9.9,1015.8,-99.9,16.4,2,-9.999,9,15.8
Hakuho-maru,KH70-1,131,1970,2,11,20,,35.4,157.27,327,8,293.8,5,-99,-9.9,1016.1,-99.9,16.4,2,-9.999,9,15.7
Hakuho-maru,KH70-1,132,1970,2,11,21,,35.44,157.34,327,8,292.6,5,-99,-9.9,1016.4,-99.9,16.3,2,-9.999,9,15.6
Hakuho-maru,KH70-1,133,1970,2,11,22,,35.51,157.43,327,8,292.9,5,-99,-9.9,1016.4,-99.9,16.2,2,-9.999,9,15.5
Hakuho-maru,KH70-1,134,1970,2,11,23,,35.6,157.54,327,8,294,5,-99,-9.9,1016.2,-99.9,16.1,2,-9.999,9,15.4
Hakuho-maru,KH70-1,139,1970,2,12,4,,36.1,158.02,327,8,285.6,5,-99,-9.9,1015.3,-99.9,16.1,2,-9.999,9,15.5
Hakuho-maru,KH70-1,140,1970,2,12,5,,36.22,158.03,327,8,284,5,-99,-9.9,1015.4,-99.9,16,2,-9.999,9,15.4
Hakuho-maru,KH70-1,141,1970,2,12,6,,36.34,158.05,327,8,292.9,5,-99,-9.9,1016,-99.9,15.7,2,-9.999,9,15.1
Hakuho-maru,KH70-1,142,1970,2,12,7,,36.46,158.07,327,8,294.5,5,-99,-9.9,1015.8,-99.9,15.4,2,-9.999,9,14.7
Hakuho-maru,KH70-1,143,1970,2,12,8,,36.58,158.08,327,8,292.8,5,-99,-9.9,1016,-99.9,15.1,2,-9.999,9,14.4
Hakuho-maru,KH70-1,144,1970,2,12,9,,36.7,158.1,327,8,332.8,5,-99,-9.9,1016.2,-99.9,14.8,2,-9.999,9,14.1
Hakuho-maru,KH70-1,145,1970,2,12,10,,36.9,158.08,327,8,311.2,5,-99,-9.9,1016.3,-99.9,14.5,2,-9.999,9,13.8
Hakuho-maru,KH70-1,146,1970,2,12,11,,37.1,158.07,327,8,340.7,5,-99,-9.9,1016.3,-99.9,14.2,2,-9.999,9,13.5
Hakuho-maru,KH70-1,147,1970,2,12,12,,37.3,158.05,327,8,330.6,5,-99,-9.9,1017.5,-99.9,13.9,2,-9.999,9,13.2
Hakuho-maru,KH70-1,148,1970,2,12,13,,37.5,158.03,327,8,334.7,5,-99,-9.9,1016.5,-99.9,13.6,2,-9.999,9,12.9
Hakuho-maru,KH70-1,149,1970,2,12,14,,37.7,158.02,327,8,336.9,5,-99,-9.9,1016.5,-99.9,13.3,2,-9.999,9,12.6
Hakuho-maru,KH70-1,150,1970,2,12,15,,37.89,158.01,327,8,338.8,5,-99,-9.9,1016.5,-99.9,13,2,-9.999,9,12.3
Hakuho-maru,KH70-1,151,1970,2,12,16,,38.08,158.01,327,8,341.5,5,-99,-9.9,1016.9,-99.9,12.8,2,-9.999,9,12
Hakuho-maru,KH70-1,152,1970,2,12,17,,38.27,158,327,8,342.5,5,-99,-9.9,1017.2,-99.9,12.6,2,-9.999,9,11.9
Hakuho-maru,KH70-1,153,1970,2,12,18,,38.45,158,327,8,341.6,5,-99,-9.9,1017.1,-99.9,12.5,2,-9.999,9,11.8
Hakuho-maru,KH70-1,154,1970,2,12,19,,38.64,158,327,8,334,5,-99,-9.9,1017.8,-99.9,12.4,2,-9.999,9,11.7
Hakuho-maru,KH70-1,155,1970,2,12,20,,38.82,158,327,8,-9.9,4,-99,-9.9,1018,-99.9,12.3,2,-9.999,9,11.6
Hakuho-maru,KH70-1,156,1970,2,12,21,,39,158,327,8,308.1,5,-99,-9.9,1018.4,-99.9,12.2,2,-9.999,9,11.4
Hakuho-maru,KH70-1,157,1970,2,12,22,,39.18,158,327,8,311.1,5,-99,-9.9,1018.5,-99.9,12.1,2,-9.999,9,11.3
Hakuho-maru,KH70-1,158,1970,2,12,23,,39.36,158,327,8,315.6,5,-99,-9.9,1018.7,-99.9,11.7,2,-9.999,9,10.9
Hakuho-maru,KH70-1,159,1970,2,13,0,,39.54,158,327,8,327,5,-99,-9.9,1019.4,-99.9,11.4,2,-9.999,9,10.6
Hakuho-maru,KH70-1,160,1970,2,13,1,,39.72,158,327,8,334,5,-99,-9.9,1019.2,-99.9,11,2,-9.999,9,10.2
Hakuho-maru,KH70-1,161,1970,2,13,2,,39.9,158,327,8,337.1,5,-99,-9.9,1019.4,-99.9,10.7,2,-9.999,9,9.9
Hakuho-maru,KH70-1,162,1970,2,13,3,,39.92,158,327,8,330.7,5,-99,-9.9,1019.5,-99.9,10.4,2,-9.999,9,9.5
Hakuho-maru,KH70-1,163,1970,2,13,4,,39.94,158,327,8,327.1,5,-99,-9.9,1020,-99.9,10.2,2,-9.999,9,9.4
Hakuho-maru,KH70-1,164,1970,2,13,5,,39.96,158,327,8,326.9,5,-99,-9.9,1020.3,-99.9,10.3,2,-9.999,9,9.5
Hakuho-maru,KH70-1,165,1970,2,13,6,,39.97,158,327,8,327.5,5,-99,-9.9,1020.7,-99.9,10.4,2,-9.999,9,9.6
Hakuho-maru,KH70-1,166,1970,2,13,7,,39.99,158,327,8,332,5,-99,-9.9,1020.9,-99.9,10.5,2,-9.999,9,9.7
Hakuho-maru,KH70-1,167,1970,2,13,8,,40,158.04,327,8,329,5,-99,-9.9,1021.1,-99.9,10.6,2,-9.999,9,9.8
Hakuho-maru,KH70-1,168,1970,2,13,9,,40,158.26,327,8,325.1,5,-99,-9.9,1021.2,-99.9,10.7,2,-9.999,9,9.8
Hakuho-maru,KH70-1,169,1970,2,13,10,,40,158.48,327,8,326.7,5,-99,-9.9,1020.7,-99.9,10.7,2,-9.999,9,9.9
Hakuho-maru,KH70-1,170,1970,2,13,11,,40,158.7,327,8,322.1,5,-99,-9.9,1020.4,-99.9,10.8,2,-9.999,9,10
Hakuho-maru,KH70-1,171,1970,2,13,12,,40,158.92,327,8,313.2,5,-99,-9.9,1020.6,-99.9,10.9,2,-9.999,9,10.1
Hakuho-maru,KH70-1,172,1970,2,13,13,,40,159.14,327,8,314,5,-99,-9.9,1020,-99.9,11,2,-9.999,9,10.2
Hakuho-maru,KH70-1,173,1970,2,13,14,,40,159.38,327,8,313.7,5,-99,-9.9,1019.7,-99.9,11,2,-9.999,9,10.2
Hakuho-maru,KH70-1,174,1970,2,13,15,,40,159.64,327,8,314.7,5,-99,-9.9,1019.2,-99.9,11.1,2,-9.999,9,10.3
Hakuho-maru,KH70-1,175,1970,2,13,16,,40,159.9,327,8,316,5,-99,-9.9,1018.9,-99.9,11.2,2,-9.999,9,10.4
Hakuho-maru,KH70-1,176,1970,2,13,17,,40,160.16,327,8,313.9,5,-99,-9.9,1018.5,-99.9,11.3,2,-9.999,9,10.5
Hakuho-maru,KH70-1,177,1970,2,13,18,,40,160.42,327,8,311.7,5,-99,-9.9,1017.7,-99.9,11.4,2,-9.999,9,10.6
Hakuho-maru,KH70-1,178,1970,2,13,19,,40,160.68,327,8,310.7,5,-99,-9.9,1017.7,-99.9,11.5,2,-9.999,9,10.7
Hakuho-maru,KH70-1,179,1970,2,13,20,,39.9,160.79,327,8,304.8,5,-99,-9.9,1017.5,-99.9,11.6,2,-9.999,9,10.8
Hakuho-maru,KH70-1,180,1970,2,13,21,,39.78,160.86,327,8,319.6,5,-99,-9.9,1017.5,-99.9,11.5,2,-9.999,9,10.8
Hakuho-maru,KH70-1,181,1970,2,13,22,,39.65,160.92,327,8,319.6,5,-99,-9.9,1017,-99.9,11.3,2,-9.999,9,10.5
Hakuho-maru,KH70-1,182,1970,2,13,23,,39.52,160.98,327,8,318.7,5,-99,-9.9,1016.8,-99.9,11.1,2,-9.999,9,10.3
Hakuho-maru,KH70-1,183,1970,2,14,0,,39.4,161.04,327,8,318,5,-99,-9.9,1017,-99.9,10.9,2,-9.999,9,10.1
Hakuho-maru,KH70-1,184,1970,2,14,1,,39.27,161.1,327,8,317.4,5,-99,-9.9,1016.4,-99.9,10.7,2,-9.999,9,9.9
Hakuho-maru,KH70-1,185,1970,2,14,2,,39.04,161.1,327,8,313.6,5,-99,-9.9,1015.9,-99.9,10.5,2,-9.999,9,9.7
Hakuho-maru,KH70-1,186,1970,2,14,3,,38.81,161.1,327,8,314.7,5,-99,-9.9,1015.2,-99.9,10.7,2,-9.999,9,9.9
Hakuho-maru,KH70-1,187,1970,2,14,4,,38.58,161.1,327,8,311.7,5,-99,-9.9,1014.9,-99.9,11.2,2,-9.999,9,10.4
Hakuho-maru,KH70-1,188,1970,2,14,5,,38.35,161.1,327,8,313.8,5,-99,-9.9,1014.3,-99.9,11.6,2,-9.999,9,10.8
Hakuho-maru,KH70-1,189,1970,2,14,6,,38.12,161.1,327,8,309.4,5,-99,-9.9,1013.5,-99.9,12,2,-9.999,9,11.3
Hakuho-maru,KH70-1,190,1970,2,14,7,,37.9,161.1,327,8,315.5,5,-99,-9.9,1013.3,-99.9,12.5,2,-9.999,9,11.7
Hakuho-maru,KH70-1,191,1970,2,14,8,,37.71,161.11,327,8,319.7,5,-99,-9.9,1012.8,-99.9,12.9,2,-9.999,9,12.2
Hakuho-maru,KH70-1,192,1970,2,14,9,,37.51,161.11,327,8,314.6,5,-99,-9.9,1013.7,-99.9,13.4,2,-9.999,9,12.6
Hakuho-maru,KH70-1,193,1970,2,14,10,,37.31,161.12,327,8,304.4,5,-99,-9.9,1011.9,-99.9,13.8,2,-9.999,9,13.1
Hakuho-maru,KH70-1,194,1970,2,14,11,,37.12,161.13,327,8,312.2,5,-99,-9.9,1011.4,-99.9,14.3,2,-9.999,9,13.6
Hakuho-maru,KH70-1,195,1970,2,14,12,,36.92,161.13,327,8,302.7,5,-99,-9.9,1011,-99.9,14.7,2,-9.999,9,14
Hakuho-maru,KH70-1,196,1970,2,14,13,,36.77,161.13,327,8,297.4,5,-99,-9.9,1010.7,-99.9,15.2,2,-9.999,9,14.5
Hakuho-maru,KH70-1,197,1970,2,14,14,,36.63,161.12,327,8,284.9,5,-99,-9.9,1010.5,-99.9,15.5,2,-9.999,9,14.9
Hakuho-maru,KH70-1,198,1970,2,14,15,,36.5,161.11,327,8,287.1,5,-99,-9.9,1009.7,-99.9,15.5,2,-9.999,9,14.9
Hakuho-maru,KH70-1,199,1970,2,14,16,,36.37,161.11,327,8,294.5,5,-99,-9.9,1010.1,-99.9,15.6,2,-9.999,9,14.9
Hakuho-maru,KH70-1,200,1970,2,14,17,,36.24,161.1,327,8,292.8,5,-99,-9.9,1009.9,-99.9,15.6,2,-9.999,9,14.9
Hakuho-maru,KH70-1,201,1970,2,14,18,,36.11,161.09,327,8,289.9,5,-99,-9.9,1009.7,-99.9,15.6,2,-9.999,9,15
Hakuho-maru,KH70-1,202,1970,2,14,19,,36,161.08,327,8,288.9,5,-99,-9.9,1009.9,-99.9,15.7,2,-9.999,9,15
Hakuho-maru,KH70-1,203,1970,2,14,20,,35.91,161.06,327,8,287.5,5,-99,-9.9,1010,-99.9,15.7,2,-9.999,9,15
Hakuho-maru,KH70-1,204,1970,2,14,21,,35.81,161.05,327,8,280,5,-99,-9.9,1011.2,-99.9,15.7,2,-9.999,9,15.1
Hakuho-maru,KH70-1,205,1970,2,14,22,,35.71,161.03,327,8,285.9,5,-99,-9.9,1010.3,-99.9,15.7,2,-9.999,9,15.1
Hakuho-maru,KH70-1,206,1970,2,14,23,,35.62,161.01,327,8,288.3,5,-99,-9.9,1010.4,-99.9,15.7,2,-9.999,9,15.1
Hakuho-maru,KH70-1,207,1970,2,15,0,,35.5,161,327,8,294.9,5,-99,-9.9,1010.5,-99.9,15.7,2,-9.999,9,15.1
Hakuho-maru,KH70-1,208,1970,2,15,1,,35.28,161,327,8,291.6,5,-99,-9.9,1010.4,-99.9,15.8,2,-9.999,9,15.1
Hakuho-maru,KH70-1,209,1970,2,15,2,,35.06,161,327,8,290.1,5,-99,-9.9,1010.2,-99.9,15.9,2,-9.999,9,15.3
Hakuho-maru,KH70-1,210,1970,2,15,3,,34.84,161,327,8,283.2,5,-99,-9.9,1009.2,-99.9,16.1,2,-9.999,9,15.5
Hakuho-maru,KH70-1,211,1970,2,15,4,,34.63,161,327,8,286.5,5,-99,-9.9,1009.8,-99.9,16.3,2,-9.999,9,15.7
Hakuho-maru,KH70-1,212,1970,2,15,5,,34.41,161,327,8,290.3,5,-99,-9.9,1009.7,-99.9,16.5,2,-9.999,9,15.9
Hakuho-maru,KH70-1,213,1970,2,15,6,,34.21,160.97,327,8,289.3,5,-99,-9.9,1009.7,-99.9,16.7,2,-9.999,9,16.1
Hakuho-maru,KH70-1,214,1970,2,15,7,,34.02,160.9,327,8,291.4,5,-99,-9.9,1009.7,-99.9,16.9,2,-9.999,9,16.2
Hakuho-maru,KH70-1,215,1970,2,15,8,,33.83,160.83,327,8,291.8,5,-99,-9.9,1009.8,-99.9,17,2,-9.999,9,16.4
Hakuho-maru,KH70-1,216,1970,2,15,9,,33.65,160.75,327,8,295.5,5,-99,-9.9,1011.2,-99.9,17.2,2,-9.999,9,16.6
Hakuho-maru,KH70-1,217,1970,2,15,10,,33.46,160.68,327,8,292.6,5,-99,-9.9,1010,-99.9,17.3,2,-9.999,9,16.7
Hakuho-maru,KH70-1,218,1970,2,15,11,,33.28,160.61,327,8,290.9,5,-99,-9.9,1010.2,-99.9,17.5,2,-9.999,9,16.9
Hakuho-maru,KH70-1,227,1970,2,15,20,,31.67,159.45,327,8,277.6,5,-99,-9.9,1008.3,-99.9,18.7,2,-9.999,9,18.1
Hakuho-maru,KH70-1,228,1970,2,15,21,,31.5,159.31,327,8,277.2,5,-99,-9.9,1008.5,-99.9,18.7,2,-9.999,9,18.2
Hakuho-maru,KH70-1,229,1970,2,15,22,,31.33,159.17,327,8,277,5,-99,-9.9,1008.9,-99.9,18.8,2,-9.999,9,18.2
Hakuho-maru,KH70-1,230,1970,2,16,0,,31.01,158.9,327,8,277.2,5,-99,-9.9,1009.5,-99.9,18.9,2,-9.999,9,18.3
Hakuho-maru,KH70-1,231,1970,2,16,1,,30.85,158.77,327,8,276.7,5,-99,-9.9,1009.1,-99.9,18.9,2,-9.999,9,18.4
Hakuho-maru,KH70-1,232,1970,2,16,2,,30.68,158.63,327,8,276.6,5,-99,-9.9,1009.1,-99.9,18.9,2,-9.999,9,18.4
Hakuho-maru,KH70-1,233,1970,2,16,3,,30.52,158.5,327,8,276.8,5,-99,-9.9,1009.2,-99.9,19,2,-9.999,9,18.4
Hakuho-maru,KH70-1,234,1970,2,16,4,,30.36,158.37,327,8,276.1,5,-99,-9.9,1009.1,-99.9,19,2,-9.999,9,18.5
Hakuho-maru,KH70-1,235,1970,2,16,5,,30.24,158.28,327,8,275.2,5,-99,-9.9,1009.6,-99.9,19.1,2,-9.999,9,18.5